sat.trackr.live / text

‹ back to catalog

STARLINK-4176

NORAD 53289 · 2022-086AZ

PAYLOAD ACTIVE UNKNOWN

§ Identity

Operator
Country
US
Launch date
2022-07-24
Launch site
AFETR
Launch vehicle
Mass (kg)
RCS (m²)

Purposes: comms

External: N2YO · Heavens-Above · Gunter

§ Orbital elements

Epoch: 2026-05-24T20:53:34.939392Z

Period
95.44 min
Inclination
53.2126°
Eccentricity
0.0001054
Mean motion
15.08842927 rev/d
Perigee alt
539.0 km
Apogee alt
540.5 km
Semi-major
6,917.9 km
B*
9.2615e-6
RAAN
197.2740°
Arg perigee
79.8890°
Mean anomaly
280.2221°
Rev number
21,275

§ Raw data

STARLINK-41761 53289U 22086AZ  26144.87054328 -.00000140  00000+0  92615-5 0  99922 53289  53.2126 197.2740 0001054  79.8890 280.2221 15.08842927212759

JSON: /api/v1/satellites/53289 · /tle

For live sub-satellite position, see the globe view (requires WebGL).

§ Visibility from observer

Set your observer location to see the next 7 days of passes ≥ 10°. The values pass through the URL so the page stays shareable.

No JS? Fill the form by hand. The geolocation button needs JavaScript.